User: anonymous   Login
Location: ??
(35.4032°N, 139.3073°E)
Time: 12:09:10
(UTC+00:00)
Language:

Cosmos 1975 - Orbit

View from above orbital plane
View from above orbital plane
View from above satellite
View from above satellite

Ground track
Ground track

The orbit data is extracted from the following two-line orbital elements,

1 19573U 88093A   24167.89307220  .00006480  00000-0  35042-3 0  9999
2 19573  82.5268  25.3838 0013513 218.6276 141.3991 15.14427865923322
Epoch (UTC): 15 June 2024 21:26:01
Eccentricity: 0.0013513
inclination: 82.5268°
perigee height: 513 km
apogee height: 532 km
right ascension of ascending node: 25.3838°
argument of perigee: 218.6276°
revolutions per day: 15.14427865
mean anomaly at epoch: 141.3991°
orbit number at epoch: 92332

The dashed part of the orbit path shows where the satellite is in the earth's shadow,  

DLR